Wind_Speed
19 18 20 19 18 16 18 17 17 16 15 16 14 16 18 19 19 19 19 17 23 22 23 23 23 23 22 21 21 20 20 19 19 18 17 17 17 16 15 14 14 14 13
19 20 23 19 19 15 16 16 16 15 16 16 17 17 18 19 22 20 20 20 26 23 25 28 27 25 24 24 23 23 23 22 21 21 20 19 18 18 17 17 17 16 14
23 21 22 19 18 16 15 15 17 18 19 20 22 22 21 21 21 22 22 24 23 24 25 31 28 27 25 26 26 27 26 25 24 24 24 22 21 20 19 18 18 16 15
23 25 24 23 16 14 17 16 16 19 21 22 23 25 23 23 25 23 20 21 26 27 29 33 29 30 27 28 29 29 28 29 27 25 26 25 24 22 22 20 19 18 17
18 23 27 24 16 16 17 16 17 19 22 24 24 22 25 24 26 25 27 27 24 28 31 35 33 34 31 30 29 32 32 31 30 30 29 27 27 27 26 24 22 21 20
12 17 22 24 15 14 19 17 18 21 23 26 26 27 25 26 28 26 29 26 28 27 31 34 33 35 36 32 32 32 34 35 33 32 31 31 30 29 29 28 26 25 23
7 9 10 9 11 6 11 10 14 16 21 23 21 18 25 30 30 31 31 28 28 28 26 30 33 34 31 34 35 35 31 35 36 36 34 33 32 32 31 31 30 28 27
5 7 5 4 4 4 11 8 8 13 15 16 11 8 3 7 18 27 32 32 31 31 32 30 32 33 31 33 37 37 35 33 36 37 37 36 36 35 35 33 33 32 31
6 5 6 2 6 11 13 11 10 15 15 16 16 12 2 4 2 7 22 30 32 29 32 30 32 33 33 37 33 35 34 32 32 36 38 38 38 38 37 37 37 36 34
6 5 7 5 10 10 10 11 12 14 15 17 18 18 28 12 2 3 2 13 24 28 27 31 29 31 35 36 36 36 35 36 35 34 34 38 39 37 37 37 38 39 39
3 6 6 7 10 10 11 13 15 16 17 18 21 16 19 23 23 6 3 4 5 19 22 24 26 30 29 32 33 34 36 36 35 38 37 38 36 36 35 35 35 38 40
11 9 9 9 11 14 15 16 15 17 16 18 20 17 15 5 11 10 6 6 6 18 19 17 20 20 22 27 35 32 30 31 38 36 39 41 42 40 36 36 36 36 37
12 13 12 12 13 15 16 18 16 17 15 17 17 21 11 18 17 9 7 4 4 5 10 18 14 14 16 18 21 26 26 24 26 26 33 37 40 42 41 39 35 37 37
10 9 10 12 14 15 16 16 18 20 19 17 18 18 17 13 6 13 9 6 3 4 9 14 15 12 15 20 25 22 22 22 24 28 26 27 31 40 42 42 41 38 39
7 6 9 14 16 16 16 14 18 21 19 17 19 17 16 14 11 8 5 13 11 3 3 6 9 12 14 16 20 19 17 17 19 22 25 29 31 34 34 41 44 45 42
6 6 8 12 15 15 14 15 19 21 21 19 19 19 18 16 13 11 9 7 9 11 3 5 15 14 18 19 19 18 19 26 27 29 34 28 30 33 34 33 42 45 46
6 7 8 11 13 16 12 13 17 19 22 23 20 20 22 18 15 14 13 12 11 9 5 13 19 19 18 18 21 20 19 20 20 25 27 30 32 35 29 29 34 36 41
6 8 7 10 12 14 12 11 13 17 21 24 21 20 21 17 18 18 15 15 15 13 11 11 20 18 19 18 18 16 16 18 21 25 28 28 24 32 37 27 32 33 36
7 9 9 10 13 15 12 10 11 16 19 20 20 21 21 22 23 17 17 17 15 14 11 12 16 17 17 15 15 16 17 17 17 19 25 29 30 31 35 33 32 30 34
8 9 10 11 12 12 11 12 15 17 17 19 18 19 21 22 22 20 20 20 20 16 13 12 14 18 17 17 15 15 19 17 18 18 21 24 27 24 25 31 31 27 25
9 8 9 12 13 12 14 13 13 14 15 15 16 20 19 18 20 19 21 22 21 19 18 16 15 13 17 17 16 17 17 21 24 22 22 24 25 26 27 27 27 26 25
10 11 12 13 16 19 16 13 12 13 15 18 21 21 19 18 18 19 21 20 19 19 19 12 10 13 14 16 18 20 19 12 4 11 10 12 12 20 23 24 24 27 24
10 11 13 15 19 21 18 18 18 17 19 20 20 20 20 15 20 27 28 26 24 21 17 17 16 16 15 22 24 20 19 17 15 23 19 16 16 17 18 21 23 23 21
12 13 13 18 20 23 23 23 21 19 21 22 21 22 20 20 22 27 29 30 30 28 27 26 22 22 24 26 24 25 24 23 23 26 20 9 16 21 19 18 18 22 21
11 13 17 20 20 22 26 24 23 23 25 25 26 27 23 27 28 27 27 27 28 29 26 24 23 25 26 26 25 24 24 16 10 17 18 14 16 19 21 22 19 21 26
21 19 18 19 21 22 22 25 25 25 26 26 27 27 28 31 29 28 30 28 26 32 29 27 25 26 23 23 21 20 21 17 15 6 11 12 14 8 5 9 17 22 24
Wind_Direction
236 242 246 249 243 242 247 252 240 245 243 237 245 242 248 256 249 245 236 230 221 231 235 234 228 221 214 212 210 209 216 217 219 218 214 209 209 208 205 203 201 201 197
244 251 253 251 247 249 254 254 249 247 247 247 252 249 251 251 254 242 235 232 233 236 239 232 230 228 221 218 215 214 217 219 220 222 222 220 218 216 209 209 209 210 210
250 253 256 260 257 250 256 254 255 255 254 252 254 253 252 251 249 250 242 238 239 243 242 230 233 235 233 229 221 219 218 225 226 225 226 227 226 225 223 222 220 219 221
266 266 269 273 272 260 256 255 257 256 257 258 260 259 251 249 248 247 246 245 245 239 231 228 233 234 239 236 231 229 227 224 227 232 232 231 232 232 231 229 230 229 228
263 271 266 274 281 284 272 263 258 258 259 261 260 262 256 255 254 253 251 249 249 245 240 231 232 234 240 239 236 232 234 233 230 230 234 236 235 236 234 236 234 231 230
298 290 272 264 267 295 299 277 272 271 269 270 268 265 267 259 256 258 256 258 251 252 247 242 241 234 240 244 239 239 236 236 238 235 236 238 238 237 238 239 238 237 235
296 300 309 256 256 259 302 301 290 284 285 280 271 270 264 262 261 258 255 255 253 245 250 245 238 243 243 238 236 238 239 236 237 240 240 242 240 239 239 241 240 239 239
311 344 352 335 342 324 331 324 330 319 303 301 253 252 275 272 251 255 253 248 247 245 245 246 242 245 241 239 236 236 237 238 238 239 240 241 243 244 243 243 243 243 242
324 2 4 339 350 328 328 333 323 331 308 309 292 241 253 236 306 242 239 243 242 245 244 247 240 244 244 242 245 245 241 235 239 241 240 243 243 243 246 247 247 246 244
297 10 6 353 341 330 332 332 330 327 319 296 305 272 248 249 224 326 298 258 246 246 251 250 251 245 242 248 251 244 244 237 236 239 243 244 245 243 245 246 247 249 247
100 54 42 32 22 11 357 354 344 331 328 316 300 273 243 244 244 230 264 280 251 245 257 253 256 256 253 250 258 245 248 247 245 241 240 240 241 244 244 245 244 246 247
88 71 57 36 25 22 17 3 347 341 335 337 348 325 246 219 222 220 239 261 256 279 282 282 260 259 267 253 255 253 253 255 254 249 248 245 243 243 245 247 247 247 243
86 62 43 31 23 19 17 13 14 4 355 352 354 1 336 265 244 218 213 261 263 284 304 279 265 256 244 261 247 246 247 245 251 256 258 256 253 250 243 243 246 247 243
75 55 39 32 20 17 21 28 30 23 14 6 1 9 10 15 318 268 235 218 264 258 267 278 281 268 258 255 253 258 250 259 258 257 255 256 255 252 251 243 243 244 248
77 60 34 26 24 29 25 33 21 17 16 17 16 6 358 3 358 336 303 237 219 250 264 294 254 238 261 291 259 266 261 274 267 261 274 265 267 269 262 254 250 243 242
78 45 30 23 22 22 22 28 24 18 15 16 15 12 10 3 353 336 321 305 260 239 276 234 243 261 264 270 258 261 262 288 279 265 267 268 256 268 265 258 252 255 244
64 32 20 17 13 14 21 23 21 19 16 11 12 13 15 6 356 347 333 317 299 276 239 276 282 287 268 279 271 260 260 250 261 255 252 257 262 266 260 270 263 256 255
38 25 12 8 3 1 1 3 11 16 13 6 5 6 6 7 6 6 345 319 312 307 269 275 297 293 283 285 279 268 259 262 266 251 248 251 248 249 251 263 264 258 255
37 31 24 10 3 359 355 353 9 8 8 6 6 3 7 2 358 358 358 359 337 304 291 272 291 300 294 296 293 293 292 284 272 272 256 253 250 249 257 260 262 270 262
47 39 24 15 17 22 23 12 5 1 1 359 359 7 7 11 6 359 352 352 347 335 303 289 287 297 302 308 298 288 292 293 292 283 274 263 253 256 261 271 252 259 254
58 50 36 36 39 32 18 1 357 354 358 11 13 12 18 5 3 10 10 360 358 347 333 316 295 292 302 309 310 312 297 300 299 291 278 265 255 256 263 263 257 254 258
62 47 40 46 53 48 35 31 32 34 19 9 3 358 9 352 357 355 355 355 355 359 354 340 328 308 304 312 316 311 304 298 302 295 277 281 254 254 261 260 260 256 259
53 53 66 64 64 51 34 29 17 12 6 2 2 2 355 348 347 345 336 331 329 328 334 333 327 321 319 321 324 310 289 281 269 286 282 273 273 263 257 260 254 249 249
72 55 78 77 62 40 19 13 10 16 19 20 17 10 7 360 351 345 334 324 318 313 312 315 311 305 301 304 309 305 301 285 285 289 276 247 263 265 275 268 255 251 242
60 88 92 68 48 35 15 15 23 26 23 21 19 16 7 2 359 359 355 345 335 325 317 310 305 301 296 294 297 305 298 278 275 276 283 242 258 268 276 272 260 249 242
106 100 79 55 46 30 25 29 32 32 24 18 17 17 13 4 357 358 359 357 343 336 329 322 319 313 309 306 298 299 296 270 263 283 277 220 255 245 289 273 255 254 245
Height
825 826 827 827 826 826 825 826 826 826 826 826 826 826 827 828 830 831 832 834 835 836 838 840 842 841 842 842 844 846 847 849 850 851 852 854 855 856 857 859 860 861 862
822 822 822 824 824 823 823 823 823 824 824 824 822 822 822 824 826 827 828 829 830 831 833 835 837 838 839 840 841 842 844 846 848 850 851 853 854 855 856 857 859 860 860
821 820 819 818 819 820 819 820 820 820 820 819 818 818 818 818 820 822 824 825 825 826 827 831 832 834 834 836 838 839 840 842 844 846 848 850 851 852 853 854 856 857 858
823 821 819 816 815 814 815 815 815 816 816 815 814 814 814 814 814 815 818 819 820 821 822 825 826 829 830 832 833 835 836 838 839 842 844 846 848 849 850 851 853 854 856
816 815 812 813 815 813 810 810 811 812 811 810 810 809 808 809 809 811 811 813 815 816 816 818 820 822 824 826 828 829 830 832 834 836 839 842 844 845 847 848 849 851 852
811 809 807 810 808 810 810 808 808 808 807 806 805 804 804 804 804 804 805 807 809 810 811 812 814 816 817 819 822 823 825 827 829 831 833 836 838 840 843 844 845 847 848
812 810 806 807 809 810 806 807 805 806 803 802 802 799 798 798 798 797 798 800 802 804 805 807 809 809 810 812 813 815 819 821 824 827 828 831 832 834 837 839 841 842 844
812 808 806 806 806 806 806 805 804 804 801 801 800 798 795 790 787 789 790 792 793 797 799 802 802 803 804 805 807 808 811 814 818 820 822 825 827 829 831 833 836 838 839
809 808 808 807 806 807 806 804 804 802 799 798 797 796 794 791 785 782 783 784 786 789 792 794 795 796 798 798 801 802 806 808 810 813 817 818 820 822 824 826 829 832 834
809 808 807 808 807 806 805 803 802 800 797 794 792 788 786 785 784 785 781 781 782 785 786 787 788 789 790 791 794 796 797 801 803 806 808 810 812 815 816 818 821 824 827
809 809 809 809 808 807 804 800 799 797 794 791 784 780 779 779 781 784 781 779 778 779 780 781 782 782 785 788 787 789 791 792 795 796 800 801 804 805 809 811 813 815 818
810 810 809 809 807 805 801 798 797 795 791 788 783 777 774 774 775 778 779 778 778 775 776 777 777 777 778 777 783 782 783 785 786 788 791 794 795 798 800 802 804 807 810
810 809 808 807 805 803 800 798 795 792 790 786 782 776 772 771 772 772 773 773 775 772 772 773 773 773 772 774 774 776 776 777 778 782 784 786 788 788 790 793 794 798 802
809 809 808 807 805 802 799 797 795 791 788 784 781 777 774 772 771 770 772 773 770 770 769 769 774 772 772 771 770 771 771 771 771 772 774 776 778 781 782 784 786 789 793
809 808 808 806 804 802 799 797 795 791 788 784 781 778 776 774 771 770 769 771 772 772 767 765 770 769 767 766 767 768 767 765 767 765 767 769 770 772 774 776 779 781 785
808 807 807 805 803 801 799 797 794 791 788 785 781 779 777 774 771 769 768 767 767 769 768 764 766 764 762 762 762 762 759 755 761 756 758 761 760 763 764 767 769 772 775
806 806 806 804 802 800 798 796 794 792 789 786 783 780 777 775 772 769 766 765 765 766 766 762 762 761 759 757 757 756 755 754 756 752 753 752 750 747 755 758 758 760 763
806 805 803 802 801 800 798 796 795 792 789 787 784 781 779 776 773 770 768 765 762 762 762 760 757 755 754 753 752 751 750 750 748 748 748 747 746 746 749 749 749 750 751
804 803 803 802 800 799 797 796 794 792 790 787 784 782 779 776 772 769 767 764 762 760 759 757 754 752 751 749 747 746 745 744 743 742 740 741 741 740 740 740 741 742 744
803 802 802 801 799 798 796 796 794 792 790 789 786 782 779 775 772 768 765 762 760 758 755 754 752 750 747 745 743 742 740 738 736 736 733 732 732 731 731 732 734 736 724
803 802 801 800 799 797 796 795 794 793 791 788 786 782 778 776 773 770 766 762 758 755 752 750 748 746 743 741 740 739 737 735 731 729 727 725 725 725 724 724 725 728 727
803 803 800 801 800 799 798 796 795 793 791 788 785 782 779 774 772 768 765 763 761 757 753 749 745 743 740 738 736 735 734 733 729 725 724 722 720 719 718 720 719 719 720
802 802 801 801 802 801 800 797 795 793 790 788 785 781 778 776 772 767 763 760 757 755 754 751 747 742 739 737 735 731 729 728 726 723 721 717 716 713 713 712 712 713 712
801 803 801 802 803 803 801 797 793 790 787 785 784 781 779 776 772 768 763 757 754 749 747 745 743 739 736 733 731 729 725 721 718 716 717 713 710 708 708 708 708 708 708
800 802 805 802 801 802 802 796 790 786 785 783 781 779 777 773 768 765 759 754 748 742 740 739 736 733 730 726 725 722 717 716 712 709 709 708 705 704 702 701 701 702 702
801 805 804 804 802 802 802 795 789 787 786 783 781 778 775 772 768 762 757 753 747 743 736 730 726 724 721 718 717 715 713 712 708 704 702 704 701 701 698 694 693 695 696